Regional Weather Roundup
Issued by NWS

Home | Current Version | Previous Version | Text Only | Print | Product List | Glossary On
Versions: 1 2 3 4 5 6 7 8 9 10 11 12 13 14 15 16 17 18 19 20 21 22 23 24 25 26 27 28 29 30 31 32 33 34 35 36 37 38 39 40 41 42 43 44 45 46 47 48 49 50
000
ASUS43 KLMK 211610
RWRKY
KENTUCKY REGIONAL WEATHER ROUNDUP
NATIONAL WEATHER SERVICE LOUISVILLE KY
1200 PM EDT SUN SEP 21 2014

NOTE "FAIR" INDICATES FEW OR NO CLOUDS BELOW 12,000 FEET
WITH NO SIGNIFICANT WEATHER AND/OR OBSTRUCTIONS TO VISIBILITY.

KYZ001>023-026-027-061>063-070>075-211700-
WESTERN AND SOUTH CENTRAL KENTUCKY

CITY           SKY/WX    TMP DP  RH WIND       PRES   REMARKS
PADUCAH        MOSUNNY   81  67  62 W9        30.00R
HENDERSON      PTSUNNY   75  63  64 NW15      29.97R
OWENSBORO      CLOUDY    76  67  73 NW15      29.95R
HOPKINSVILLE   MOSUNNY   78  73  85 W15       29.97F
BOWLING GREEN  CLOUDY    74  67  78 W9        29.97R
GLASGOW        CLOUDY    74  67  78 W9        29.96R
$$

KYZ024-025-028>034-038-045-046-053-211700-
NORTH CENTRAL KENTUCKY

CITY           SKY/WX    TMP DP  RH WIND       PRES   REMARKS
LOUISVILLE/SDF PTSUNNY   79  65  62 W16G22    29.89F
LOUISVILLE/LOU PTSUNNY   77  65  66 NW13      29.90S
FORT KNOX      PTSUNNY   77  67  70 W10       29.91S
$$

KYZ035>037-039>044-047>052-055>060-089>105-211700-
NORTHEAST KENTUCKY

CITY           SKY/WX    TMP DP  RH WIND       PRES   REMARKS
LEXINGTON      PTSUNNY   78  67  68 W14G22    29.90F
COVINGTON      PTSUNNY   77  63  61 W17G26    29.86S
FRANKFORT      PTSUNNY   76  65  68 W9        29.88F
$$

KYZ054-064>069-076>088-106>120-211700-
SOUTHEAST KENTUCKY

CITY           SKY/WX    TMP DP  RH WIND       PRES   REMARKS
JACKSON        CLOUDY    71  65  81 VRB5      29.93F
LONDON         PTSUNNY   74  65  73 SW9       29.96F
SOMERSET       CLOUDY    72  64  78 W10       29.97F
MIDDLESBORO    PTSUNNY   75  65  71 S6        29.98F
MONTICELLO     CLOUDY    76  67  73 SW10      29.98F
$$



USA.gov is the U.S. government's official web portal to all federal, state and local government web resources and services.